Time,TemperatureF,DewpointF,PressureIn,WindDirection,WindDirectionDegrees,WindSpeedMPH,WindSpeedGustMPH,Humidity,HourlyPrecipIn,Conditions,Clouds,dailyrainin,SoftwareType,DateUTC
2013-07-11 00:10:00,81.6,67.3,29.92,SE,136,3.0,11.0,62,0.00,,,0.00,Wunderground v.1.15,2013-07-11 05:10:00,
2013-07-11 00:20:00,81.4,67.6,29.91,SE,136,3.0,3.0,63,0.00,,,0.00,Wunderground v.1.15,2013-07-11 05:20:00,
2013-07-11 00:25:00,81.2,67.4,29.92,SE,136,2.0,3.0,63,0.00,,,0.00,Wunderground v.1.15,2013-07-11 05:25:00,
2013-07-11 00:35:00,81.1,67.3,29.92,SE,136,2.0,6.0,63,0.00,,,0.00,Wunderground v.1.15,2013-07-11 05:35:00,
2013-07-11 00:40:00,80.9,67.6,29.92,SE,136,3.0,3.0,64,0.00,,,0.00,Wunderground v.1.15,2013-07-11 05:40:00,
2013-07-11 00:50:00,80.7,67.4,29.92,SE,136,4.0,4.0,64,0.00,,,0.00,Wunderground v.1.15,2013-07-11 05:50:00,
2013-07-11 00:55:00,80.5,67.6,29.92,SE,136,3.0,4.0,65,0.00,,,0.00,Wunderground v.1.15,2013-07-11 05:55:00,
2013-07-11 01:05:00,80.3,67.5,29.92,SE,136,3.0,3.0,65,0.00,,,0.00,Wunderground v.1.15,2013-07-11 06:05:00,
2013-07-11 01:10:00,80.1,67.3,29.91,SE,136,3.0,6.0,65,0.00,,,0.00,Wunderground v.1.15,2013-07-11 06:10:00,
2013-07-11 01:20:00,79.8,67.4,29.92,SE,136,2.0,2.0,66,0.00,,,0.00,Wunderground v.1.15,2013-07-11 06:20:00,
2013-07-11 01:25:00,79.6,67.2,29.92,SE,136,3.0,7.0,66,0.00,,,0.00,Wunderground v.1.15,2013-07-11 06:25:00,
2013-07-11 01:35:00,79.4,67.5,29.92,SE,136,2.0,5.0,67,0.00,,,0.00,Wunderground v.1.15,2013-07-11 06:35:00,
2013-07-11 01:40:00,79.2,67.3,29.92,SE,136,2.0,2.0,67,0.00,,,0.00,Wunderground v.1.15,2013-07-11 06:40:00,
2013-07-11 01:50:00,79.0,67.5,29.92,SE,136,1.0,7.0,68,0.00,,,0.00,Wunderground v.1.15,2013-07-11 06:50:00,
2013-07-11 01:55:00,78.8,67.3,29.92,SE,136,2.0,7.0,68,0.00,,,0.00,Wunderground v.1.15,2013-07-11 06:55:00,
2013-07-11 02:05:00,78.6,67.6,29.91,SE,136,4.0,4.0,69,0.00,,,0.00,Wunderground v.1.15,2013-07-11 07:05:00,
2013-07-11 02:10:00,78.6,68.0,29.91,SE,136,3.0,5.0,70,0.00,,,0.00,Wunderground v.1.15,2013-07-11 07:10:00,
2013-07-11 02:20:00,78.5,67.9,29.91,SE,138,4.0,8.0,70,0.00,,,0.00,Wunderground v.1.15,2013-07-11 07:20:00,
2013-07-11 02:25:00,78.3,68.1,29.91,SE,138,4.0,8.0,71,0.00,,,0.00,Wunderground v.1.15,2013-07-11 07:25:00,
2013-07-11 02:35:00,78.1,68.3,29.91,SE,138,5.0,5.0,72,0.00,,,0.00,Wunderground v.1.15,2013-07-11 07:35:00,
2013-07-11 02:40:00,78.1,68.3,29.91,SE,138,3.0,6.0,72,0.00,,,0.00,Wunderground v.1.15,2013-07-11 07:40:00,
2013-07-11 02:50:00,77.9,68.5,29.92,SE,140,4.0,4.0,73,0.00,,,0.00,Wunderground v.1.15,2013-07-11 07:50:00,
2013-07-11 02:55:00,77.7,68.4,29.92,SE,140,3.0,4.0,73,0.00,,,0.00,Wunderground v.1.15,2013-07-11 07:55:00,
2013-07-11 03:05:00,77.6,68.7,29.92,SE,141,3.0,3.0,74,0.00,,,0.00,Wunderground v.1.15,2013-07-11 08:05:00,
2013-07-11 03:10:00,77.4,68.5,29.93,SE,141,1.0,1.0,74,0.00,,,0.00,Wunderground v.1.15,2013-07-11 08:10:00,
2013-07-11 03:20:00,77.2,68.7,29.93,SE,141,2.0,2.0,75,0.00,,,0.00,Wunderground v.1.15,2013-07-11 08:20:00,
2013-07-11 03:25:00,77.2,68.7,29.92,SE,141,1.0,2.0,75,0.00,,,0.00,Wunderground v.1.15,2013-07-11 08:25:00,
2013-07-11 03:35:00,76.8,68.7,29.93,SE,141,1.0,7.0,76,0.00,,,0.00,Wunderground v.1.15,2013-07-11 08:35:00,
2013-07-11 03:40:00,76.8,68.7,29.93,SE,141,1.0,1.0,76,0.00,,,0.00,Wunderground v.1.15,2013-07-11 08:40:00,
2013-07-11 03:50:00,76.7,68.9,29.93,SE,141,0.0,0.0,77,0.00,,,0.00,Wunderground v.1.15,2013-07-11 08:50:00,
2013-07-11 03:55:00,76.5,68.7,29.93,SE,141,0.0,0.0,77,0.00,,,0.00,Wunderground v.1.15,2013-07-11 08:55:00,
2013-07-11 04:05:00,76.1,68.4,29.93,SE,141,0.0,0.0,77,0.00,,,0.00,Wunderground v.1.15,2013-07-11 09:05:00,
2013-07-11 04:10:00,76.0,68.6,29.93,SE,141,0.0,0.0,78,0.00,,,0.00,Wunderground v.1.15,2013-07-11 09:10:00,
2013-07-11 04:20:00,75.8,68.8,29.93,SE,141,0.0,0.0,79,0.00,,,0.00,Wunderground v.1.15,2013-07-11 09:20:00,
2013-07-11 04:25:00,75.6,68.6,29.93,SE,141,0.0,0.0,79,0.00,,,0.00,Wunderground v.1.15,2013-07-11 09:25:00,
2013-07-11 04:35:00,75.4,68.8,29.93,SE,141,0.0,0.0,80,0.00,,,0.00,Wunderground v.1.15,2013-07-11 09:35:00,
2013-07-11 04:40:00,75.3,68.7,29.93,SE,141,0.0,0.0,80,0.00,,,0.00,Wunderground v.1.15,2013-07-11 09:40:00,
2013-07-11 04:50:00,75.1,68.9,29.92,SE,141,1.0,1.0,81,0.00,,,0.00,Wunderground v.1.15,2013-07-11 09:50:00,
2013-07-11 04:55:00,75.1,68.9,29.92,SE,141,2.0,2.0,81,0.00,,,0.00,Wunderground v.1.15,2013-07-11 09:55:00,
2013-07-11 05:05:00,74.9,68.7,29.93,SE,141,1.0,5.0,81,0.00,,,0.00,Wunderground v.1.15,2013-07-11 10:05:00,
2013-07-11 05:10:00,74.7,68.8,29.92,SE,141,1.0,1.0,82,0.00,,,0.00,Wunderground v.1.15,2013-07-11 10:10:00,
2013-07-11 05:20:00,74.7,68.8,29.92,SE,141,0.0,0.0,82,0.00,,,0.00,Wunderground v.1.15,2013-07-11 10:20:00,
2013-07-11 05:25:00,74.6,69.1,29.92,SE,141,0.0,0.0,83,0.00,,,0.00,Wunderground v.1.15,2013-07-11 10:25:00,
2013-07-11 05:35:00,74.4,68.9,29.93,SE,141,0.0,2.0,83,0.00,,,0.00,Wunderground v.1.15,2013-07-11 10:35:00,
2013-07-11 05:40:00,74.2,68.7,29.93,SE,141,1.0,2.0,83,0.00,,,0.00,Wunderground v.1.15,2013-07-11 10:40:00,
2013-07-11 05:50:00,74.2,69.1,29.92,SE,141,1.0,1.0,84,0.00,,,0.00,Wunderground v.1.15,2013-07-11 10:50:00,
2013-07-11 05:55:00,74.0,68.9,29.93,SE,141,1.0,4.0,84,0.00,,,0.00,Wunderground v.1.15,2013-07-11 10:55:00,
2013-07-11 06:05:00,74.0,69.2,29.93,SE,141,1.0,4.0,85,0.00,,,0.00,Wunderground v.1.15,2013-07-11 11:05:00,
2013-07-11 06:10:00,73.9,69.1,29.92,SE,141,1.0,1.0,85,0.00,,,0.00,Wunderground v.1.15,2013-07-11 11:10:00,
2013-07-11 06:20:00,73.9,69.1,29.92,SE,141,0.0,0.0,85,0.00,,,0.00,Wunderground v.1.15,2013-07-11 11:20:00,
2013-07-11 06:25:00,73.7,68.9,29.92,SE,141,0.0,0.0,85,0.00,,,0.00,Wunderground v.1.15,2013-07-11 11:25:00,
2013-07-11 06:35:00,73.5,69.1,29.92,SE,141,1.0,2.0,86,0.00,,,0.00,Wunderground v.1.15,2013-07-11 11:35:00,
2013-07-11 06:40:00,73.5,69.1,29.92,SE,141,1.0,1.0,86,0.00,,,0.00,Wunderground v.1.15,2013-07-11 11:40:00,
2013-07-11 06:50:00,73.3,68.9,29.92,SE,141,1.0,1.0,86,0.00,,,0.00,Wunderground v.1.15,2013-07-11 11:50:00,
2013-07-11 06:55:00,73.3,69.2,29.92,SE,141,1.0,1.0,87,0.00,,,0.00,Wunderground v.1.15,2013-07-11 11:55:00,
2013-07-11 07:05:00,73.3,69.2,29.93,SE,141,1.0,2.0,87,0.00,,,0.00,Wunderground v.1.15,2013-07-11 12:05:00,
2013-07-11 07:10:00,73.3,69.2,29.93,SE,141,2.0,2.0,87,0.00,,,0.00,Wunderground v.1.15,2013-07-11 12:10:00,
2013-07-11 07:20:00,73.5,69.4,29.92,SE,141,2.0,2.0,87,0.00,,,0.00,Wunderground v.1.15,2013-07-11 12:20:00,
2013-07-11 07:25:00,73.5,69.4,29.92,SE,141,2.0,2.0,87,0.00,,,0.00,Wunderground v.1.15,2013-07-11 12:25:00,
2013-07-11 07:35:00,73.9,69.8,29.93,SE,141,2.0,4.0,87,0.00,,,0.00,Wunderground v.1.15,2013-07-11 12:35:00,
2013-07-11 07:40:00,74.2,70.1,29.92,SE,141,3.0,4.0,87,0.00,,,0.00,Wunderground v.1.15,2013-07-11 12:40:00,
2013-07-11 07:50:00,74.6,70.1,29.92,SE,141,3.0,3.0,86,0.00,,,0.00,Wunderground v.1.15,2013-07-11 12:50:00,
2013-07-11 07:55:00,74.9,70.4,29.93,SE,141,4.0,6.0,86,0.00,,,0.00,Wunderground v.1.15,2013-07-11 12:55:00,
2013-07-11 08:05:00,75.4,70.6,29.93,SE,141,3.0,5.0,85,0.00,,,0.00,Wunderground v.1.15,2013-07-11 13:05:00,
2013-07-11 08:10:00,75.8,70.6,29.93,SE,141,3.0,5.0,84,0.00,,,0.00,Wunderground v.1.15,2013-07-11 13:10:00,
2013-07-11 08:20:00,76.5,70.9,29.93,SSE,147,5.0,5.0,83,0.00,,,0.00,Wunderground v.1.15,2013-07-11 13:20:00,
2013-07-11 08:25:00,76.7,71.1,29.93,SSE,147,6.0,8.0,83,0.00,,,0.00,Wunderground v.1.15,2013-07-11 13:25:00,
2013-07-11 08:35:00,77.6,70.9,29.93,SSE,164,5.0,11.0,80,0.00,,,0.00,Wunderground v.1.15,2013-07-11 13:35:00,
2013-07-11 08:40:00,77.9,70.9,29.93,SSE,165,4.0,8.0,79,0.00,,,0.00,Wunderground v.1.15,2013-07-11 13:40:00,
2013-07-11 08:50:00,78.1,70.7,29.92,SSE,165,6.0,6.0,78,0.00,,,0.00,Wunderground v.1.15,2013-07-11 13:50:00,
2013-07-11 08:55:00,78.8,71.0,29.93,SSE,167,4.0,6.0,77,0.00,,,0.00,Wunderground v.1.15,2013-07-11 13:55:00,
2013-07-11 09:04:00,79.8,71.6,29.93,SSE,167,4.0,6.0,76,0.00,,,0.00,Wunderground v.1.15,2013-07-11 14:04:00,
2013-07-11 09:10:00,80.5,71.4,29.93,SSE,167,2.0,2.0,74,0.00,,,0.00,Wunderground v.1.15,2013-07-11 14:10:00,
2013-07-11 09:20:00,81.4,71.1,29.93,SSE,167,2.0,2.0,71,0.00,,,0.00,Wunderground v.1.15,2013-07-11 14:20:00,
2013-07-11 09:25:00,81.6,70.9,29.92,SSE,167,2.0,4.0,70,0.00,,,0.00,Wunderground v.1.15,2013-07-11 14:25:00,
2013-07-11 09:35:00,81.2,71.7,29.93,SSE,167,4.0,6.0,73,0.00,,,0.00,Wunderground v.1.15,2013-07-11 14:35:00,
2013-07-11 09:40:00,80.9,70.6,29.93,SSE,167,4.0,13.0,71,0.00,,,0.00,Wunderground v.1.15,2013-07-11 14:40:00,
2013-07-11 09:50:00,81.2,70.9,29.92,SSE,167,4.0,4.0,71,0.00,,,0.00,Wunderground v.1.15,2013-07-11 14:50:00,
2013-07-11 09:55:00,82.6,71.0,29.92,SSE,167,3.0,4.0,68,0.00,,,0.00,Wunderground v.1.15,2013-07-11 14:55:00,
2013-07-11 10:10:00,84.9,70.9,29.92,SSE,167,2.0,2.0,63,0.00,,,0.00,Wunderground v.1.15,2013-07-11 15:10:00,
2013-07-11 10:20:00,85.7,70.7,29.92,SSE,167,2.0,2.0,61,0.00,,,0.00,Wunderground v.1.15,2013-07-11 15:20:00,
2013-07-11 10:25:00,85.9,69.9,29.92,South,169,3.0,8.0,59,0.00,,,0.00,Wunderground v.1.15,2013-07-11 15:25:00,
2013-07-11 10:35:00,85.5,70.5,29.92,South,169,4.0,5.0,61,0.00,,,0.00,Wunderground v.1.15,2013-07-11 15:35:00,
2013-07-11 10:40:00,85.9,70.4,29.92,South,169,3.0,3.0,60,0.00,,,0.00,Wunderground v.1.15,2013-07-11 15:40:00,
2013-07-11 10:50:00,87.4,69.8,29.92,South,169,2.0,2.0,56,0.00,,,0.00,Wunderground v.1.15,2013-07-11 15:50:00,
2013-07-11 10:55:00,87.8,69.6,29.91,South,169,3.0,7.0,55,0.00,,,0.00,Wunderground v.1.15,2013-07-11 15:55:00,
2013-07-11 11:05:00,88.6,69.3,29.92,South,169,2.0,5.0,53,0.00,,,0.00,Wunderground v.1.15,2013-07-11 16:05:00,
2013-07-11 11:10:00,89.3,69.4,29.92,South,169,2.0,7.0,52,0.00,,,0.00,Wunderground v.1.15,2013-07-11 16:10:00,
2013-07-11 11:25:00,90.7,70.1,29.92,South,169,2.0,3.0,51,0.00,,,0.00,Wunderground v.1.15,2013-07-11 16:25:00,
2013-07-11 11:35:00,91.2,68.8,29.92,South,169,1.0,5.0,48,0.00,,,0.00,Wunderground v.1.15,2013-07-11 16:35:00,
2013-07-11 11:40:00,91.2,68.2,29.92,South,169,2.0,2.0,47,0.00,,,0.00,Wunderground v.1.15,2013-07-11 16:40:00,
2013-07-11 11:50:00,92.1,69.0,29.92,South,169,1.0,1.0,47,0.00,,,0.00,Wunderground v.1.15,2013-07-11 16:50:00,
2013-07-11 11:55:00,92.5,67.4,29.91,South,169,1.0,1.0,44,0.00,,,0.00,Wunderground v.1.15,2013-07-11 16:55:00,
2013-07-11 12:15:00,93.4,67.6,29.91,South,169,1.0,1.0,43,0.00,,,0.00,Wunderground v.1.15,2013-07-11 17:15:00,
2013-07-11 12:20:00,94.0,66.7,29.91,South,169,2.0,2.0,41,0.00,,,0.00,Wunderground v.1.15,2013-07-11 17:20:00,
2013-07-11 12:25:00,94.7,65.9,29.91,South,169,1.0,2.0,39,0.00,,,0.00,Wunderground v.1.15,2013-07-11 17:25:00,
2013-07-11 12:35:00,94.5,65.7,29.91,South,169,0.0,1.0,39,0.00,,,0.00,Wunderground v.1.15,2013-07-11 17:35:00,
2013-07-11 12:40:00,95.1,66.2,29.91,South,169,1.0,1.0,39,0.00,,,0.00,Wunderground v.1.15,2013-07-11 17:40:00,
2013-07-11 12:50:00,95.9,63.8,29.90,South,169,1.0,1.0,35,0.00,,,0.00,Wunderground v.1.15,2013-07-11 17:50:00,
2013-07-11 12:55:00,96.3,65.0,29.90,South,169,1.0,1.0,36,0.00,,,0.00,Wunderground v.1.15,2013-07-11 17:55:00,
2013-07-11 13:05:00,96.1,65.6,29.90,South,169,1.0,1.0,37,0.00,,,0.00,Wunderground v.1.15,2013-07-11 18:05:00,
2013-07-11 13:10:00,96.3,65.8,29.90,South,169,1.0,1.0,37,0.00,,,0.00,Wunderground v.1.15,2013-07-11 18:10:00,
2013-07-11 13:20:00,96.3,65.8,29.90,South,169,0.0,0.0,37,0.00,,,0.00,Wunderground v.1.15,2013-07-11 18:20:00,
2013-07-11 13:25:00,96.6,64.5,29.89,South,169,0.0,0.0,35,0.00,,,0.00,Wunderground v.1.15,2013-07-11 18:25:00,
2013-07-11 13:35:00,97.3,63.4,29.89,South,169,1.0,1.0,33,0.00,,,0.00,Wunderground v.1.15,2013-07-11 18:35:00,
2013-07-11 13:40:00,97.5,62.7,29.89,South,169,1.0,11.0,32,0.00,,,0.00,Wunderground v.1.15,2013-07-11 18:40:00,
2013-07-11 13:50:00,97.8,63.8,29.89,South,169,2.0,2.0,33,0.00,,,0.00,Wunderground v.1.15,2013-07-11 18:50:00,
2013-07-11 13:55:00,98.0,62.2,29.89,South,169,0.0,2.0,31,0.00,,,0.00,Wunderground v.1.15,2013-07-11 18:55:00,
2013-07-11 14:05:00,99.0,62.1,29.88,South,169,1.0,2.0,30,0.00,,,0.00,Wunderground v.1.15,2013-07-11 19:05:00,
2013-07-11 14:10:00,99.0,60.2,29.88,South,169,1.0,1.0,28,0.00,,,0.00,Wunderground v.1.15,2013-07-11 19:10:00,
2013-07-11 14:20:00,99.0,60.2,29.87,South,169,0.0,0.0,28,0.00,,,0.00,Wunderground v.1.15,2013-07-11 19:20:00,
2013-07-11 14:25:00,98.7,60.9,29.87,South,169,0.0,3.0,29,0.00,,,0.00,Wunderground v.1.15,2013-07-11 19:25:00,
2013-07-11 14:35:00,98.7,61.9,29.86,South,169,1.0,1.0,30,0.00,,,0.00,Wunderground v.1.15,2013-07-11 19:35:00,
2013-07-11 14:40:00,99.0,62.1,29.86,South,169,0.0,0.0,30,0.00,,,0.00,Wunderground v.1.15,2013-07-11 19:40:00,
2013-07-11 14:50:00,99.0,61.2,29.86,South,169,0.0,0.0,29,0.00,,,0.00,Wunderground v.1.15,2013-07-11 19:50:00,
2013-07-11 14:55:00,99.7,59.8,29.86,South,169,1.0,1.0,27,0.00,,,0.00,Wunderground v.1.15,2013-07-11 19:55:00,
2013-07-11 15:05:00,99.7,60.8,29.85,South,169,1.0,1.0,28,0.00,,,0.00,Wunderground v.1.15,2013-07-11 20:05:00,
2013-07-11 15:10:00,99.7,60.8,29.85,South,169,2.0,2.0,28,0.00,,,0.00,Wunderground v.1.15,2013-07-11 20:10:00,
2013-07-11 15:34:00,98.5,59.8,29.84,South,169,2.0,6.0,28,0.00,,,0.00,Wunderground v.1.15,2013-07-11 20:34:00,
2013-07-11 15:40:00,99.4,59.5,29.84,South,169,1.0,1.0,27,0.00,,,0.00,Wunderground v.1.15,2013-07-11 20:40:00,
2013-07-11 15:50:00,99.0,60.2,29.83,South,169,1.0,1.0,28,0.00,,,0.00,Wunderground v.1.15,2013-07-11 20:50:00,
2013-07-11 16:10:00,98.5,59.8,29.83,South,169,1.0,4.0,28,0.00,,,0.00,Wunderground v.1.15,2013-07-11 21:10:00,
2013-07-11 16:25:00,99.2,59.3,29.82,South,169,0.0,1.0,27,0.00,,,0.00,Wunderground v.1.15,2013-07-11 21:25:00,
2013-07-11 16:35:00,99.2,59.3,29.82,South,171,1.0,1.0,27,0.00,,,0.00,Wunderground v.1.15,2013-07-11 21:35:00,
2013-07-11 16:40:00,99.0,59.2,29.82,South,171,1.0,7.0,27,0.00,,,0.00,Wunderground v.1.15,2013-07-11 21:40:00,
2013-07-11 16:50:00,98.5,58.8,29.81,SSE,160,1.0,1.0,27,0.00,,,0.00,Wunderground v.1.15,2013-07-11 21:50:00,
2013-07-11 17:00:00,98.0,59.3,29.81,SSE,152,1.0,3.0,28,0.00,,,0.00,Wunderground v.1.15,2013-07-11 22:00:00,
2013-07-11 17:05:00,97.8,58.2,29.81,SSE,152,1.0,3.0,27,0.00,,,0.00,Wunderground v.1.15,2013-07-11 22:05:00,
2013-07-11 17:10:00,97.5,57.9,29.81,SSE,158,1.0,1.0,27,0.00,,,0.00,Wunderground v.1.15,2013-07-11 22:10:00,
2013-07-11 17:20:00,97.1,58.6,29.81,SSE,158,1.0,1.0,28,0.00,,,0.00,Wunderground v.1.15,2013-07-11 22:20:00,
2013-07-11 17:25:00,96.8,58.3,29.81,SSE,160,2.0,2.0,28,0.00,,,0.00,Wunderground v.1.15,2013-07-11 22:25:00,
2013-07-11 17:34:00,96.6,57.1,29.81,SSE,151,2.0,4.0,27,0.00,,,0.00,Wunderground v.1.15,2013-07-11 22:34:00,
2013-07-11 17:50:00,96.1,58.7,29.81,SSE,154,1.0,1.0,29,0.00,,,0.00,Wunderground v.1.15,2013-07-11 22:50:00,
2013-07-11 17:55:00,95.9,57.6,29.81,SE,145,2.0,2.0,28,0.00,,,0.00,Wunderground v.1.15,2013-07-11 22:55:00,
2013-07-11 18:15:00,94.9,57.7,29.80,SSE,154,0.0,1.0,29,0.00,,,0.00,Wunderground v.1.15,2013-07-11 23:15:00,
2013-07-11 18:20:00,94.9,58.6,29.80,SSE,154,0.0,0.0,30,0.00,,,0.00,Wunderground v.1.15,2013-07-11 23:20:00,
2013-07-11 18:30:00,94.7,57.5,29.80,SSE,154,1.0,1.0,29,0.00,,,0.00,Wunderground v.1.15,2013-07-11 23:30:00,
2013-07-11 18:45:00,94.5,59.2,29.80,SSE,154,1.0,1.0,31,0.00,,,0.00,Wunderground v.1.15,2013-07-11 23:45:00,
2013-07-11 18:50:00,94.3,59.0,29.80,SSE,154,1.0,3.0,31,0.00,,,0.00,Wunderground v.1.15,2013-07-11 23:50:00,
2013-07-11 18:55:00,94.0,58.8,29.80,SSE,154,1.0,3.0,31,0.00,,,0.00,Wunderground v.1.15,2013-07-11 23:55:00,
2013-07-11 19:05:00,93.8,57.7,29.80,SSE,154,1.0,2.0,30,0.00,,,0.00,Wunderground v.1.15,2013-07-12 00:05:00,
2013-07-11 19:10:00,93.8,57.7,29.80,SSE,154,1.0,1.0,30,0.00,,,0.00,Wunderground v.1.15,2013-07-12 00:10:00,
2013-07-11 19:20:00,93.6,57.5,29.81,SSE,154,0.0,1.0,30,0.00,,,0.00,Wunderground v.1.15,2013-07-12 00:20:00,
2013-07-11 19:25:00,93.4,58.2,29.81,SSE,154,0.0,1.0,31,0.00,,,0.00,Wunderground v.1.15,2013-07-12 00:25:00,
2013-07-11 19:35:00,93.2,58.1,29.81,SSE,154,0.0,0.0,31,0.00,,,0.00,Wunderground v.1.15,2013-07-12 00:35:00,
2013-07-11 19:40:00,92.7,57.6,29.81,SSE,154,0.0,0.0,31,0.00,,,0.00,Wunderground v.1.15,2013-07-12 00:40:00,
2013-07-11 19:50:00,92.5,58.4,29.81,SSE,154,0.0,0.0,32,0.00,,,0.00,Wunderground v.1.15,2013-07-12 00:50:00,
2013-07-11 19:55:00,92.1,58.9,29.81,SSE,154,1.0,1.0,33,0.00,,,0.00,Wunderground v.1.15,2013-07-12 00:55:00,
2013-07-11 20:05:00,91.6,60.1,29.80,SSE,154,0.0,1.0,35,0.00,,,0.00,Wunderground v.1.15,2013-07-12 01:05:00,
2013-07-11 20:10:00,91.4,59.9,29.80,SSE,154,0.0,0.0,35,0.00,,,0.00,Wunderground v.1.15,2013-07-12 01:10:00,
2013-07-11 20:20:00,90.7,58.5,29.81,SSE,154,1.0,1.0,34,0.00,,,0.00,Wunderground v.1.15,2013-07-12 01:20:00,
2013-07-11 20:25:00,90.5,57.5,29.81,SSE,154,0.0,1.0,33,0.00,,,0.00,Wunderground v.1.15,2013-07-12 01:25:00,
2013-07-11 20:40:00,89.5,59.0,29.81,SSE,154,0.0,0.0,36,0.00,,,0.00,Wunderground v.1.15,2013-07-12 01:40:00,
2013-07-11 20:50:00,88.6,59.7,29.82,SSE,154,0.0,0.0,38,0.00,,,0.00,Wunderground v.1.15,2013-07-12 01:50:00,
2013-07-11 20:55:00,87.8,59.0,29.82,SSE,154,0.0,0.0,38,0.00,,,0.00,Wunderground v.1.15,2013-07-12 01:55:00,
2013-07-11 21:04:00,86.3,59.8,29.81,SSE,154,0.0,0.0,41,0.00,,,0.00,Wunderground v.1.15,2013-07-12 02:04:00,
2013-07-11 21:10:00,85.5,59.8,29.82,SSE,154,0.0,0.0,42,0.00,,,0.00,Wunderground v.1.15,2013-07-12 02:10:00,
2013-07-11 21:20:00,84.5,60.2,29.83,SSE,154,0.0,0.0,44,0.00,,,0.00,Wunderground v.1.15,2013-07-12 02:20:00,
2013-07-11 21:30:00,83.8,59.6,29.83,SSE,154,0.0,0.0,44,0.00,,,0.00,Wunderground v.1.15,2013-07-12 02:30:00,
2013-07-11 21:35:00,83.4,59.8,29.83,SSE,154,0.0,0.0,45,0.00,,,0.00,Wunderground v.1.15,2013-07-12 02:35:00,
2013-07-11 21:45:00,82.8,59.9,29.83,SSE,154,0.0,0.0,46,0.00,,,0.00,Wunderground v.1.15,2013-07-12 02:45:00,
2013-07-11 21:50:00,82.4,60.1,29.84,SSE,154,0.0,0.0,47,0.00,,,0.00,Wunderground v.1.15,2013-07-12 02:50:00,
2013-07-11 21:55:00,82.2,60.0,29.84,SSE,154,0.0,0.0,47,0.00,,,0.00,Wunderground v.1.15,2013-07-12 02:55:00,
2013-07-11 22:05:00,81.8,60.2,29.83,SSE,154,0.0,0.0,48,0.00,,,0.00,Wunderground v.1.15,2013-07-12 03:05:00,
2013-07-11 22:15:00,81.6,60.6,29.84,SSE,154,0.0,0.0,49,0.00,,,0.00,Wunderground v.1.15,2013-07-12 03:15:00,
2013-07-11 22:20:00,81.4,60.4,29.84,SSE,154,0.0,0.0,49,0.00,,,0.00,Wunderground v.1.15,2013-07-12 03:20:00,
2013-07-11 22:25:00,81.2,60.2,29.84,SSE,154,0.0,0.0,49,0.00,,,0.00,Wunderground v.1.15,2013-07-12 03:25:00,
2013-07-11 22:35:00,81.6,60.6,29.84,SSE,154,1.0,2.0,49,0.00,,,0.00,Wunderground v.1.15,2013-07-12 03:35:00,
2013-07-11 22:45:00,82.4,61.3,29.84,SSE,154,1.0,1.0,49,0.00,,,0.00,Wunderground v.1.15,2013-07-12 03:45:00,
2013-07-11 22:50:00,82.8,61.7,29.84,SSE,154,0.0,0.0,49,0.00,,,0.00,Wunderground v.1.15,2013-07-12 03:50:00,
2013-07-11 22:55:00,83.0,61.9,29.84,SSE,154,0.0,0.0,49,0.00,,,0.00,Wunderground v.1.15,2013-07-12 03:55:00,
2013-07-11 23:05:00,83.2,62.6,29.84,SSE,154,0.0,3.0,50,0.00,,,0.00,Wunderground v.1.15,2013-07-12 04:05:00,
2013-07-11 23:10:00,83.4,62.8,29.84,SSE,154,1.0,1.0,50,0.00,,,0.00,Wunderground v.1.15,2013-07-12 04:10:00,
2013-07-11 23:15:00,83.4,63.4,29.84,SSE,154,1.0,5.0,51,0.00,,,0.00,Wunderground v.1.15,2013-07-12 04:15:00,
2013-07-11 23:20:00,83.6,63.6,29.84,SSE,154,1.0,7.0,51,0.00,,,0.00,Wunderground v.1.15,2013-07-12 04:20:00,
2013-07-11 23:25:00,83.6,64.1,29.85,SSE,154,2.0,7.0,52,0.00,,,0.00,Wunderground v.1.15,2013-07-12 04:25:00,
2013-07-11 23:34:00,83.6,64.7,29.85,SSE,154,1.0,7.0,53,0.00,,,0.00,Wunderground v.1.15,2013-07-12 04:34:00,
2013-07-11 23:40:00,83.4,65.0,29.85,SSE,154,2.0,2.0,54,0.00,,,0.00,Wunderground v.1.15,2013-07-12 04:40:00,
2013-07-11 23:45:00,83.2,64.8,29.85,SSE,154,1.0,2.0,54,0.00,,,0.00,Wunderground v.1.15,2013-07-12 04:45:00,
2013-07-11 23:50:00,83.0,64.6,29.85,SSE,154,0.0,0.0,54,0.00,,,0.00,Wunderground v.1.15,2013-07-12 04:50:00,
2013-07-11 23:55:00,82.8,65.0,29.85,SSE,154,1.0,1.0,55,0.00,,,0.00,Wunderground v.1.15,2013-07-12 04:55:00,